Year,Month,Day,Hour,Minute,Value (Times are PST for windgust in km/hr)
2016,07,07,00,18,1.60
2016,07,07,00,59,1.60
2016,07,07,01,00,3.20
2016,07,07,01,01,4.80
2016,07,07,01,02,4.80
2016,07,07,01,03,3.20
2016,07,07,01,04,3.20
2016,07,07,01,05,3.20
2016,07,07,01,06,1.60
2016,07,07,01,07,1.60
2016,07,07,01,21,1.60
2016,07,07,01,22,1.60
2016,07,07,01,24,1.60
2016,07,07,01,26,1.60
2016,07,07,01,27,1.60
2016,07,07,01,28,1.60
2016,07,07,01,29,1.60
2016,07,07,01,30,1.60
2016,07,07,01,31,1.60
2016,07,07,01,32,1.60
2016,07,07,01,33,1.60
2016,07,07,01,36,1.60
2016,07,07,01,37,1.60
2016,07,07,01,38,1.60
2016,07,07,03,08,1.60
2016,07,07,03,09,1.60
2016,07,07,03,11,1.60
2016,07,07,03,12,1.60
2016,07,07,03,13,1.60
2016,07,07,03,14,1.60
2016,07,07,03,15,1.60
2016,07,07,03,16,1.60
2016,07,07,03,17,1.60
2016,07,07,03,18,1.60
2016,07,07,03,19,1.60
2016,07,07,03,20,1.60
2016,07,07,03,21,1.60
2016,07,07,03,26,1.60
2016,07,07,03,27,1.60
2016,07,07,05,29,1.60
2016,07,07,05,30,1.60
2016,07,07,05,31,1.60
2016,07,07,05,45,1.60
2016,07,07,05,48,1.60
2016,07,07,05,50,1.60
2016,07,07,06,09,1.60
2016,07,07,06,12,1.60
2016,07,07,06,15,1.60
2016,07,07,06,16,1.60
2016,07,07,06,18,1.60
2016,07,07,06,19,1.60
2016,07,07,06,20,1.60
2016,07,07,06,21,1.60
2016,07,07,06,31,1.60
2016,07,07,06,48,1.60
2016,07,07,07,21,1.60
2016,07,07,07,27,1.60
2016,07,07,07,28,1.60
2016,07,07,07,29,1.60
2016,07,07,07,31,1.60
2016,07,07,07,32,1.60
2016,07,07,07,33,1.60
2016,07,07,07,34,1.60
2016,07,07,07,35,1.60
2016,07,07,07,38,1.60
2016,07,07,07,39,1.60
2016,07,07,07,40,1.60
2016,07,07,07,41,1.60
2016,07,07,07,42,1.60
2016,07,07,07,43,1.60
2016,07,07,07,45,1.60
2016,07,07,07,46,3.20
2016,07,07,07,47,3.20
2016,07,07,07,48,3.20
2016,07,07,07,49,1.60
2016,07,07,07,50,1.60
2016,07,07,07,51,1.60
2016,07,07,07,52,1.60
2016,07,07,07,53,1.60
2016,07,07,07,55,1.60
2016,07,07,07,58,1.60
2016,07,07,07,59,1.60
2016,07,07,08,01,1.60
2016,07,07,08,05,1.60
2016,07,07,08,06,3.20
2016,07,07,08,07,3.20
2016,07,07,08,08,3.20
2016,07,07,08,09,3.20
2016,07,07,08,10,3.20
2016,07,07,08,11,1.60
2016,07,07,08,12,1.60
2016,07,07,08,13,3.20
2016,07,07,08,14,1.60
2016,07,07,08,15,1.60
2016,07,07,08,16,1.60
2016,07,07,08,17,1.60
2016,07,07,08,18,1.60
2016,07,07,08,22,1.60
2016,07,07,08,23,1.60
2016,07,07,08,24,1.60
2016,07,07,08,25,1.60
2016,07,07,08,26,1.60
2016,07,07,08,28,1.60
2016,07,07,08,30,1.60
2016,07,07,08,31,1.60
2016,07,07,08,32,1.60
2016,07,07,08,33,1.60
2016,07,07,08,34,1.60
2016,07,07,08,35,1.60
2016,07,07,08,36,1.60
2016,07,07,08,37,1.60
2016,07,07,08,38,1.60
2016,07,07,08,39,3.20
2016,07,07,08,40,14.50
2016,07,07,08,41,12.90
2016,07,07,08,42,12.90
2016,07,07,08,43,16.10
2016,07,07,08,44,11.30
2016,07,07,08,45,14.50
2016,07,07,08,46,17.70
2016,07,07,08,47,16.10
2016,07,07,08,48,12.90
2016,07,07,08,49,14.50
2016,07,07,08,50,12.90
2016,07,07,08,51,16.10
2016,07,07,08,52,14.50
2016,07,07,08,53,11.30
2016,07,07,08,54,11.30
2016,07,07,08,55,16.10
2016,07,07,08,56,11.30
2016,07,07,08,57,9.60
2016,07,07,08,58,17.70
2016,07,07,08,59,14.50
2016,07,07,09,00,16.10
2016,07,07,09,01,14.50
2016,07,07,09,02,19.30
2016,07,07,09,03,17.70
2016,07,07,09,04,12.90
2016,07,07,09,05,16.10
2016,07,07,09,06,16.10
2016,07,07,09,07,12.90
2016,07,07,09,08,8.10
2016,07,07,09,09,16.10
2016,07,07,09,10,14.50
2016,07,07,09,11,12.90
2016,07,07,09,12,12.90
2016,07,07,09,13,14.50
2016,07,07,09,14,24.20
2016,07,07,09,15,19.30
2016,07,07,09,16,11.30
2016,07,07,09,17,6.40
2016,07,07,09,18,12.90
2016,07,07,09,19,19.30
2016,07,07,09,20,17.70
2016,07,07,09,21,11.30
2016,07,07,09,22,17.70
2016,07,07,09,23,16.10
2016,07,07,09,24,16.10
2016,07,07,09,25,12.90
2016,07,07,09,26,6.40
2016,07,07,09,27,11.30
2016,07,07,09,28,14.50
2016,07,07,09,29,14.50
2016,07,07,09,30,11.30
2016,07,07,09,31,8.10
2016,07,07,09,32,12.90
2016,07,07,09,33,9.60
2016,07,07,09,34,11.30
2016,07,07,09,35,12.90
2016,07,07,09,36,11.30
2016,07,07,09,37,8.10
2016,07,07,09,38,8.10
2016,07,07,09,39,11.30
2016,07,07,09,40,16.10
2016,07,07,09,41,16.10
2016,07,07,09,42,14.50
2016,07,07,09,43,25.70
2016,07,07,09,44,20.90
2016,07,07,09,45,19.30
2016,07,07,09,46,16.10
2016,07,07,09,47,17.70
2016,07,07,09,48,27.40
2016,07,07,09,49,25.70
2016,07,07,09,50,12.90
2016,07,07,09,51,14.50
2016,07,07,09,52,11.30
2016,07,07,09,53,16.10
2016,07,07,09,54,11.30
2016,07,07,09,55,16.10
2016,07,07,09,56,12.90
2016,07,07,09,57,12.90
2016,07,07,09,58,11.30
2016,07,07,09,59,20.90
2016,07,07,10,00,12.90
2016,07,07,10,01,14.50
2016,07,07,10,02,12.90
2016,07,07,10,03,16.10
2016,07,07,10,04,14.50
2016,07,07,10,05,17.70
2016,07,07,10,06,17.70
2016,07,07,10,07,19.30
2016,07,07,10,08,14.50
2016,07,07,10,09,14.50
2016,07,07,10,10,12.90
2016,07,07,10,11,14.50
2016,07,07,10,12,19.30
2016,07,07,10,13,17.70
2016,07,07,10,14,16.10
2016,07,07,10,15,14.50
2016,07,07,10,16,16.10
2016,07,07,10,17,17.70
2016,07,07,10,18,17.70
2016,07,07,10,19,17.70
2016,07,07,10,20,20.90
2016,07,07,10,21,22.50
2016,07,07,10,22,17.70
2016,07,07,10,23,22.50
2016,07,07,10,24,22.50
2016,07,07,10,25,24.20
2016,07,07,10,26,27.40
2016,07,07,10,27,22.50
2016,07,07,10,28,20.90
2016,07,07,10,29,17.70
2016,07,07,10,30,19.30
2016,07,07,10,31,17.70
2016,07,07,10,32,14.50
2016,07,07,10,33,14.50
2016,07,07,10,34,19.30
2016,07,07,10,35,17.70
2016,07,07,10,36,14.50
2016,07,07,10,37,11.30
2016,07,07,10,38,11.30
2016,07,07,10,39,11.30
2016,07,07,10,40,11.30
2016,07,07,10,41,12.90
2016,07,07,10,42,11.30
2016,07,07,10,43,8.10
2016,07,07,10,44,8.10
2016,07,07,10,45,11.30
2016,07,07,10,46,14.50
2016,07,07,10,47,11.30
2016,07,07,10,48,12.90
2016,07,07,10,49,20.90
2016,07,07,10,50,17.70
2016,07,07,10,51,14.50
2016,07,07,10,52,12.90
2016,07,07,10,53,8.10
2016,07,07,10,54,12.90
2016,07,07,10,55,8.10
2016,07,07,10,56,6.40
2016,07,07,10,57,3.20
2016,07,07,10,58,19.30
2016,07,07,10,59,12.90
2016,07,07,11,00,9.60
2016,07,07,11,01,6.40
2016,07,07,11,02,4.80
2016,07,07,11,03,6.40
2016,07,07,11,04,1.60
2016,07,07,11,05,4.80
2016,07,07,11,06,8.10
2016,07,07,11,07,4.80
2016,07,07,11,08,3.20
2016,07,07,11,09,1.60
2016,07,07,11,10,3.20
2016,07,07,11,11,1.60
2016,07,07,11,12,1.60
2016,07,07,11,13,1.60
2016,07,07,11,14,1.60
2016,07,07,11,26,1.60
2016,07,07,11,27,1.60
2016,07,07,11,30,1.60
2016,07,07,11,31,3.20
2016,07,07,11,32,3.20
2016,07,07,11,33,3.20
2016,07,07,11,36,1.60
2016,07,07,11,37,1.60
2016,07,07,11,38,3.20
2016,07,07,11,39,4.80
2016,07,07,11,40,4.80
2016,07,07,11,41,4.80
2016,07,07,11,42,3.20
2016,07,07,11,43,3.20
2016,07,07,11,44,1.60
2016,07,07,11,47,1.60
2016,07,07,11,48,1.60
2016,07,07,11,51,1.60
2016,07,07,11,52,3.20
2016,07,07,11,53,3.20
2016,07,07,11,54,3.20
2016,07,07,11,55,4.80
2016,07,07,11,56,3.20
2016,07,07,11,57,1.60
2016,07,07,11,58,1.60
2016,07,07,11,59,4.80
2016,07,07,12,00,4.80
2016,07,07,12,01,4.80
2016,07,07,12,02,4.80
2016,07,07,12,03,3.20
2016,07,07,12,04,3.20
2016,07,07,12,05,4.80
2016,07,07,12,06,4.80
2016,07,07,12,07,3.20
2016,07,07,12,08,3.20
2016,07,07,12,09,4.80
2016,07,07,12,10,6.40
2016,07,07,12,11,4.80
2016,07,07,12,12,4.80
2016,07,07,12,13,3.20
2016,07,07,12,14,4.80
2016,07,07,12,15,9.60
2016,07,07,12,16,14.50
2016,07,07,12,17,11.30
2016,07,07,12,18,12.90
2016,07,07,12,19,14.50
2016,07,07,12,20,12.90
2016,07,07,12,21,11.30
2016,07,07,12,22,9.60
2016,07,07,12,23,8.10
2016,07,07,12,24,9.60
2016,07,07,12,25,9.60
2016,07,07,12,26,14.50
2016,07,07,12,27,14.50
2016,07,07,12,28,11.30
2016,07,07,12,29,12.90
2016,07,07,12,30,8.10
2016,07,07,12,31,14.50
2016,07,07,12,32,9.60
2016,07,07,12,33,4.80
2016,07,07,12,34,12.90
2016,07,07,12,35,14.50
2016,07,07,12,36,11.30
2016,07,07,12,37,11.30
2016,07,07,12,38,6.40
2016,07,07,12,39,3.20
2016,07,07,12,40,3.20
2016,07,07,12,41,3.20
2016,07,07,12,42,3.20
2016,07,07,12,43,1.60
2016,07,07,12,44,11.30
2016,07,07,12,45,8.10
2016,07,07,12,46,6.40
2016,07,07,12,47,8.10
2016,07,07,12,48,11.30
2016,07,07,12,49,6.40
2016,07,07,12,50,4.80
2016,07,07,12,51,8.10
2016,07,07,12,52,8.10
2016,07,07,12,53,12.90
2016,07,07,12,54,11.30
2016,07,07,12,55,8.10
2016,07,07,12,56,9.60
2016,07,07,12,57,11.30
2016,07,07,12,58,12.90
2016,07,07,12,59,8.10
2016,07,07,13,00,6.40
2016,07,07,13,01,11.30
2016,07,07,13,02,16.10
2016,07,07,13,03,14.50
2016,07,07,13,04,8.10
2016,07,07,13,05,6.40
2016,07,07,13,06,8.10
2016,07,07,13,07,3.20
2016,07,07,13,08,3.20
2016,07,07,13,09,11.30
2016,07,07,13,10,9.60
2016,07,07,13,11,8.10
2016,07,07,13,12,11.30
2016,07,07,13,13,4.80
2016,07,07,13,14,3.20
2016,07,07,13,15,6.40
2016,07,07,13,16,4.80
2016,07,07,13,17,3.20
2016,07,07,13,18,1.60
2016,07,07,13,19,3.20
2016,07,07,13,20,4.80
2016,07,07,13,21,11.30
2016,07,07,13,22,6.40
2016,07,07,13,23,12.90
2016,07,07,13,24,14.50
2016,07,07,13,25,14.50
2016,07,07,13,26,9.60
2016,07,07,13,27,11.30
2016,07,07,13,28,12.90
2016,07,07,13,29,12.90
2016,07,07,13,30,14.50
2016,07,07,13,31,8.10
2016,07,07,13,32,8.10
2016,07,07,13,33,9.60
2016,07,07,13,34,12.90
2016,07,07,13,35,12.90
2016,07,07,13,36,11.30
2016,07,07,13,37,14.50
2016,07,07,13,38,8.10
2016,07,07,13,39,11.30
2016,07,07,13,40,12.90
2016,07,07,13,41,14.50
2016,07,07,13,42,11.30
2016,07,07,13,43,11.30
2016,07,07,13,44,11.30
2016,07,07,13,45,11.30
2016,07,07,13,46,16.10
2016,07,07,13,47,9.60
2016,07,07,13,48,17.70
2016,07,07,13,49,19.30
2016,07,07,13,50,9.60
2016,07,07,13,51,14.50
2016,07,07,13,52,14.50
2016,07,07,13,53,19.30
2016,07,07,13,54,14.50
2016,07,07,13,55,9.60
2016,07,07,13,56,11.30
2016,07,07,13,57,6.40
2016,07,07,13,58,6.40
2016,07,07,13,59,11.30
2016,07,07,14,00,8.10
2016,07,07,14,01,9.60
2016,07,07,14,02,11.30
2016,07,07,14,03,9.60
2016,07,07,14,04,4.80
2016,07,07,14,05,8.10
2016,07,07,14,06,6.40
2016,07,07,14,07,8.10
2016,07,07,14,08,8.10
2016,07,07,14,09,9.60
2016,07,07,14,10,8.10
2016,07,07,14,11,3.20
2016,07,07,14,12,1.60
2016,07,07,14,13,1.60
2016,07,07,14,14,1.60
2016,07,07,14,15,1.60
2016,07,07,14,16,1.60
2016,07,07,14,17,4.80
2016,07,07,14,18,3.20
2016,07,07,14,19,6.40
2016,07,07,14,20,4.80
2016,07,07,14,21,1.60
2016,07,07,14,22,1.60
2016,07,07,14,23,3.20
2016,07,07,14,24,3.20
2016,07,07,14,25,3.20
2016,07,07,14,26,1.60
2016,07,07,14,27,1.60
2016,07,07,14,28,3.20
2016,07,07,14,29,6.40
2016,07,07,14,30,4.80
2016,07,07,14,31,4.80
2016,07,07,14,32,3.20
2016,07,07,14,33,3.20
2016,07,07,14,34,3.20
2016,07,07,14,35,3.20
2016,07,07,14,36,1.60
2016,07,07,14,37,1.60
2016,07,07,14,38,1.60
2016,07,07,14,39,3.20
2016,07,07,14,40,3.20
2016,07,07,14,41,3.20
2016,07,07,14,42,3.20
2016,07,07,14,43,3.20
2016,07,07,14,44,3.20
2016,07,07,14,45,1.60
2016,07,07,14,46,1.60
2016,07,07,14,47,4.80
2016,07,07,14,48,3.20
2016,07,07,14,49,1.60
2016,07,07,14,50,1.60
2016,07,07,14,51,3.20
2016,07,07,14,52,3.20
2016,07,07,14,53,3.20
2016,07,07,14,54,3.20
2016,07,07,14,55,4.80
2016,07,07,14,56,4.80
2016,07,07,14,57,6.40
2016,07,07,14,58,4.80
2016,07,07,14,59,3.20
2016,07,07,15,00,3.20
2016,07,07,15,01,4.80
2016,07,07,15,02,4.80
2016,07,07,15,03,3.20
2016,07,07,15,04,1.60
2016,07,07,15,05,3.20
2016,07,07,15,06,4.80
2016,07,07,15,07,4.80
2016,07,07,15,08,3.20
2016,07,07,15,09,3.20
2016,07,07,15,10,3.20
2016,07,07,15,11,6.40
2016,07,07,15,12,4.80
2016,07,07,15,13,4.80
2016,07,07,15,14,3.20
2016,07,07,15,15,3.20
2016,07,07,15,16,3.20
2016,07,07,15,17,3.20
2016,07,07,15,18,1.60
2016,07,07,15,19,1.60
2016,07,07,15,20,1.60
2016,07,07,15,21,1.60
2016,07,07,15,22,1.60
2016,07,07,15,23,1.60
2016,07,07,15,24,4.80
2016,07,07,15,25,4.80
2016,07,07,15,26,4.80
2016,07,07,15,27,6.40
2016,07,07,15,28,4.80
2016,07,07,15,29,6.40
2016,07,07,15,30,3.20
2016,07,07,15,31,3.20
2016,07,07,15,32,3.20
2016,07,07,15,33,1.60
2016,07,07,15,34,1.60
2016,07,07,15,35,1.60
2016,07,07,15,36,1.60
2016,07,07,15,37,1.60
2016,07,07,15,39,3.20
2016,07,07,15,40,3.20
2016,07,07,15,41,3.20
2016,07,07,15,42,3.20
2016,07,07,15,43,1.60
2016,07,07,15,44,1.60
2016,07,07,15,45,1.60
2016,07,07,15,47,1.60
2016,07,07,15,49,1.60
2016,07,07,15,50,1.60
2016,07,07,15,51,1.60
2016,07,07,15,52,1.60
2016,07,07,15,53,1.60
2016,07,07,15,56,1.60
2016,07,07,15,58,1.60
2016,07,07,16,01,1.60
2016,07,07,16,03,1.60
2016,07,07,16,04,1.60
2016,07,07,16,11,1.60
2016,07,07,16,13,1.60
2016,07,07,16,14,1.60
2016,07,07,16,15,1.60
2016,07,07,16,16,3.20
2016,07,07,16,17,1.60
2016,07,07,16,18,1.60
2016,07,07,16,25,1.60
2016,07,07,16,27,1.60
2016,07,07,16,32,1.60
2016,07,07,16,33,1.60
2016,07,07,16,34,1.60
2016,07,07,16,35,1.60
2016,07,07,16,36,1.60
2016,07,07,16,37,3.20
2016,07,07,16,38,4.80
2016,07,07,16,39,4.80
2016,07,07,16,40,4.80
2016,07,07,16,41,8.10
2016,07,07,16,42,6.40
2016,07,07,16,43,6.40
2016,07,07,16,44,3.20
2016,07,07,16,45,4.80
2016,07,07,16,46,4.80
2016,07,07,16,47,4.80
2016,07,07,16,48,4.80
2016,07,07,16,49,4.80
2016,07,07,16,50,3.20
2016,07,07,16,51,4.80
2016,07,07,16,52,6.40
2016,07,07,16,53,6.40
2016,07,07,16,54,6.40
2016,07,07,16,55,8.10
2016,07,07,16,56,3.20
2016,07,07,16,57,3.20
2016,07,07,16,58,3.20
2016,07,07,16,59,4.80
2016,07,07,17,00,3.20
2016,07,07,17,01,4.80
2016,07,07,17,02,1.60
2016,07,07,17,03,3.20
2016,07,07,17,04,3.20
2016,07,07,17,08,1.60
2016,07,07,17,09,1.60
2016,07,07,17,11,1.60
2016,07,07,17,12,3.20
2016,07,07,17,13,3.20
2016,07,07,17,14,4.80
2016,07,07,17,15,4.80
2016,07,07,17,16,6.40
2016,07,07,17,17,6.40
2016,07,07,17,18,6.40
2016,07,07,17,19,6.40
2016,07,07,17,20,6.40
2016,07,07,17,21,6.40
2016,07,07,17,22,6.40
2016,07,07,17,23,6.40
2016,07,07,17,24,3.20
2016,07,07,17,25,4.80
2016,07,07,17,26,4.80
2016,07,07,17,27,3.20
2016,07,07,17,28,4.80
2016,07,07,17,29,6.40
2016,07,07,17,30,6.40
2016,07,07,17,31,4.80
2016,07,07,17,32,6.40
2016,07,07,17,33,6.40
2016,07,07,17,34,4.80
2016,07,07,17,35,4.80
2016,07,07,17,36,3.20
2016,07,07,17,37,3.20
2016,07,07,17,38,6.40
2016,07,07,17,39,4.80
2016,07,07,17,40,6.40
2016,07,07,17,41,8.10
2016,07,07,17,42,6.40
2016,07,07,17,43,4.80
2016,07,07,17,44,4.80
2016,07,07,17,45,4.80
2016,07,07,17,46,6.40
2016,07,07,17,47,3.20
2016,07,07,17,48,6.40
2016,07,07,17,49,4.80
2016,07,07,17,50,4.80
2016,07,07,17,51,4.80
2016,07,07,17,52,4.80
2016,07,07,17,53,4.80
2016,07,07,17,54,3.20
2016,07,07,17,55,3.20
2016,07,07,17,56,1.60
2016,07,07,17,57,1.60
2016,07,07,17,58,1.60
2016,07,07,17,59,1.60
2016,07,07,18,00,4.80
2016,07,07,18,01,4.80
2016,07,07,18,02,4.80
2016,07,07,18,03,4.80
2016,07,07,18,04,4.80
2016,07,07,18,05,1.60
2016,07,07,18,06,4.80
2016,07,07,18,07,4.80
2016,07,07,18,08,4.80
2016,07,07,18,09,3.20
2016,07,07,18,10,3.20
2016,07,07,18,11,4.80
2016,07,07,18,12,6.40
2016,07,07,18,13,4.80
2016,07,07,18,14,3.20
2016,07,07,18,15,4.80
2016,07,07,18,16,4.80
2016,07,07,18,17,4.80
2016,07,07,18,18,3.20
2016,07,07,18,19,1.60
2016,07,07,18,20,3.20
2016,07,07,18,21,1.60
2016,07,07,18,22,1.60
2016,07,07,18,23,4.80
2016,07,07,18,24,4.80
2016,07,07,18,25,4.80
2016,07,07,18,26,8.10
2016,07,07,18,27,8.10
2016,07,07,18,28,8.10
2016,07,07,18,29,4.80
2016,07,07,18,30,3.20
2016,07,07,18,31,3.20
2016,07,07,18,32,4.80
2016,07,07,18,33,1.60
2016,07,07,18,34,1.60
2016,07,07,18,35,1.60
2016,07,07,18,36,3.20
2016,07,07,18,37,3.20
2016,07,07,18,38,6.40
2016,07,07,18,39,6.40
2016,07,07,18,40,4.80
2016,07,07,18,41,3.20
2016,07,07,18,42,4.80
2016,07,07,18,43,1.60
2016,07,07,18,44,1.60
2016,07,07,18,45,4.80
2016,07,07,18,46,6.40
2016,07,07,18,47,4.80
2016,07,07,18,48,3.20
2016,07,07,18,49,4.80
2016,07,07,18,50,3.20
2016,07,07,18,51,1.60
2016,07,07,18,52,3.20
2016,07,07,18,53,3.20
2016,07,07,18,54,4.80
2016,07,07,18,55,1.60
2016,07,07,18,56,1.60
2016,07,07,18,57,3.20
2016,07,07,18,58,4.80
2016,07,07,18,59,4.80
2016,07,07,19,00,4.80
2016,07,07,19,01,4.80
2016,07,07,19,02,3.20
2016,07,07,19,03,3.20
2016,07,07,19,04,1.60
2016,07,07,19,05,1.60
2016,07,07,19,06,3.20
2016,07,07,19,07,4.80
2016,07,07,19,08,3.20
2016,07,07,19,09,3.20
2016,07,07,19,10,1.60
2016,07,07,19,11,3.20
2016,07,07,19,12,3.20
2016,07,07,19,13,1.60
2016,07,07,19,14,4.80
2016,07,07,19,15,3.20
2016,07,07,19,16,3.20
2016,07,07,19,17,3.20
2016,07,07,19,18,3.20
2016,07,07,19,19,1.60
2016,07,07,19,20,4.80
2016,07,07,19,21,4.80
2016,07,07,19,22,3.20
2016,07,07,19,23,3.20
2016,07,07,19,24,4.80
2016,07,07,19,25,3.20
2016,07,07,19,26,3.20
2016,07,07,19,27,1.60
2016,07,07,19,29,1.60
2016,07,07,19,30,1.60
2016,07,07,19,31,3.20
2016,07,07,19,32,3.20
2016,07,07,19,33,1.60
2016,07,07,19,34,1.60
2016,07,07,19,35,3.20
2016,07,07,19,36,3.20
2016,07,07,19,37,1.60
2016,07,07,19,38,1.60
2016,07,07,19,39,1.60
2016,07,07,19,40,3.20
2016,07,07,19,41,3.20
2016,07,07,19,42,3.20
2016,07,07,19,43,3.20
2016,07,07,19,44,3.20
2016,07,07,19,45,3.20
2016,07,07,19,46,3.20
2016,07,07,19,47,4.80
2016,07,07,19,48,3.20
2016,07,07,19,49,4.80
2016,07,07,19,50,3.20
2016,07,07,19,51,4.80
2016,07,07,19,52,4.80
2016,07,07,19,53,4.80
2016,07,07,19,54,4.80
2016,07,07,19,55,4.80
2016,07,07,19,56,4.80
2016,07,07,19,57,4.80
2016,07,07,19,58,3.20
2016,07,07,19,59,3.20
2016,07,07,20,00,3.20
2016,07,07,20,01,3.20
2016,07,07,20,02,3.20
2016,07,07,20,03,3.20
2016,07,07,20,04,4.80
2016,07,07,20,05,6.40
2016,07,07,20,06,4.80
2016,07,07,20,07,6.40
2016,07,07,20,08,8.10
2016,07,07,20,09,8.10
2016,07,07,20,10,4.80
2016,07,07,20,11,3.20
2016,07,07,20,12,4.80
2016,07,07,20,13,3.20
2016,07,07,20,14,6.40
2016,07,07,20,15,6.40
2016,07,07,20,16,6.40
2016,07,07,20,17,6.40
2016,07,07,20,18,8.10
2016,07,07,20,19,8.10
2016,07,07,20,20,6.40
2016,07,07,20,21,4.80
2016,07,07,20,22,3.20
2016,07,07,20,23,3.20
2016,07,07,20,24,4.80
2016,07,07,20,25,4.80
2016,07,07,20,26,4.80
2016,07,07,20,27,4.80
2016,07,07,20,28,6.40
2016,07,07,20,29,4.80
2016,07,07,20,30,4.80
2016,07,07,20,31,4.80
2016,07,07,20,32,8.10
2016,07,07,20,33,8.10
2016,07,07,20,34,6.40
2016,07,07,20,35,4.80
2016,07,07,20,36,8.10
2016,07,07,20,37,20.90
2016,07,07,20,38,14.50
2016,07,07,20,39,12.90
2016,07,07,20,40,19.30
2016,07,07,20,41,20.90
2016,07,07,20,42,16.10
2016,07,07,20,43,20.90
2016,07,07,20,44,19.30
2016,07,07,20,45,20.90
2016,07,07,20,46,24.20
2016,07,07,20,47,32.20
2016,07,07,20,48,29.00
2016,07,07,20,49,17.70
2016,07,07,20,50,24.20
2016,07,07,20,51,20.90
2016,07,07,20,52,22.50
2016,07,07,20,53,24.20
2016,07,07,20,54,19.30
2016,07,07,20,55,27.40
2016,07,07,20,56,24.20
2016,07,07,20,57,19.30
2016,07,07,20,58,20.90
2016,07,07,20,59,33.80
2016,07,07,21,00,22.50
2016,07,07,21,01,20.90
2016,07,07,21,02,25.70
2016,07,07,21,03,22.50
2016,07,07,21,04,35.40
2016,07,07,21,05,24.20
2016,07,07,21,06,19.30
2016,07,07,21,07,25.70
2016,07,07,21,08,30.60
2016,07,07,21,09,22.50
2016,07,07,21,10,17.70
2016,07,07,21,11,22.50
2016,07,07,21,12,25.70
2016,07,07,21,13,27.40
2016,07,07,21,14,22.50
2016,07,07,21,15,22.50
2016,07,07,21,16,24.20
2016,07,07,21,17,22.50
2016,07,07,21,18,29.00
2016,07,07,21,19,25.70
2016,07,07,21,20,30.60
2016,07,07,21,21,22.50
2016,07,07,21,22,29.00
2016,07,07,21,23,33.80
2016,07,07,21,24,29.00
2016,07,07,21,25,33.80
2016,07,07,21,26,25.70
2016,07,07,21,27,30.60
2016,07,07,21,28,32.20
2016,07,07,21,29,20.90
2016,07,07,21,30,20.90
2016,07,07,21,31,20.90
2016,07,07,21,32,22.50
2016,07,07,21,33,29.00
2016,07,07,21,34,40.20
2016,07,07,21,35,35.40
2016,07,07,21,36,25.70
2016,07,07,21,37,35.40
2016,07,07,21,38,30.60
2016,07,07,21,39,30.60
2016,07,07,21,40,24.20
2016,07,07,21,41,30.60
2016,07,07,21,42,24.20
2016,07,07,21,43,45.10
2016,07,07,21,44,29.00
2016,07,07,21,45,22.50
2016,07,07,21,46,30.60
2016,07,07,21,47,30.60
2016,07,07,21,48,27.40
2016,07,07,21,49,32.20
2016,07,07,21,50,30.60
2016,07,07,21,51,32.20
2016,07,07,21,52,27.40
2016,07,07,21,53,20.90
2016,07,07,21,54,32.20
2016,07,07,21,55,29.00
2016,07,07,21,56,27.40
2016,07,07,21,57,27.40
2016,07,07,21,58,24.20
2016,07,07,21,59,22.50
2016,07,07,22,00,33.80
2016,07,07,22,01,30.60
2016,07,07,22,02,35.40
2016,07,07,22,03,25.70
2016,07,07,22,04,30.60
2016,07,07,22,05,25.70
2016,07,07,22,06,22.50
2016,07,07,22,07,20.90
2016,07,07,22,08,19.30
2016,07,07,22,09,20.90
2016,07,07,22,10,22.50
2016,07,07,22,11,22.50
2016,07,07,22,12,14.50
2016,07,07,22,13,19.30
2016,07,07,22,14,16.10
2016,07,07,22,15,33.80
2016,07,07,22,16,29.00
2016,07,07,22,17,20.90
2016,07,07,22,18,25.70
2016,07,07,22,19,19.30
2016,07,07,22,20,24.20
2016,07,07,22,21,19.30
2016,07,07,22,22,22.50
2016,07,07,22,23,25.70
2016,07,07,22,24,22.50
2016,07,07,22,25,25.70
2016,07,07,22,26,12.90
2016,07,07,22,27,20.90
2016,07,07,22,28,17.70
2016,07,07,22,29,17.70
2016,07,07,22,30,19.30
2016,07,07,22,31,22.50
2016,07,07,22,32,24.20
2016,07,07,22,33,20.90
2016,07,07,22,34,22.50
2016,07,07,22,35,20.90
2016,07,07,22,36,16.10
2016,07,07,22,37,25.70
2016,07,07,22,38,22.50
2016,07,07,22,39,19.30
2016,07,07,22,40,19.30
2016,07,07,22,41,16.10
2016,07,07,22,42,20.90
2016,07,07,22,43,25.70
2016,07,07,22,44,29.00
2016,07,07,22,45,24.20
2016,07,07,22,46,20.90
2016,07,07,22,47,22.50
2016,07,07,22,48,22.50
2016,07,07,22,49,17.70
2016,07,07,22,50,14.50
2016,07,07,22,51,17.70
2016,07,07,22,52,22.50
2016,07,07,22,53,17.70
2016,07,07,22,54,11.30
2016,07,07,22,55,12.90
2016,07,07,22,56,14.50
2016,07,07,22,57,25.70
2016,07,07,22,58,22.50
2016,07,07,22,59,14.50
2016,07,07,23,00,16.10
2016,07,07,23,01,19.30
2016,07,07,23,02,17.70
2016,07,07,23,03,20.90
2016,07,07,23,04,20.90
2016,07,07,23,05,17.70
2016,07,07,23,06,16.10
2016,07,07,23,07,17.70
2016,07,07,23,08,17.70
2016,07,07,23,09,14.50
2016,07,07,23,10,16.10
2016,07,07,23,11,16.10
2016,07,07,23,12,20.90
2016,07,07,23,13,17.70
2016,07,07,23,14,22.50
2016,07,07,23,15,17.70
2016,07,07,23,16,17.70
2016,07,07,23,17,22.50
2016,07,07,23,18,22.50
2016,07,07,23,19,19.30
2016,07,07,23,20,20.90
2016,07,07,23,21,30.60
2016,07,07,23,22,19.30
2016,07,07,23,23,22.50
2016,07,07,23,24,22.50
2016,07,07,23,25,17.70
2016,07,07,23,26,14.50
2016,07,07,23,27,14.50
2016,07,07,23,28,17.70
2016,07,07,23,29,20.90
2016,07,07,23,30,14.50
2016,07,07,23,31,19.30
2016,07,07,23,32,14.50
2016,07,07,23,33,16.10
2016,07,07,23,34,9.60
2016,07,07,23,35,16.10
2016,07,07,23,36,17.70
2016,07,07,23,37,17.70
2016,07,07,23,38,22.50
2016,07,07,23,39,17.70
2016,07,07,23,40,14.50
2016,07,07,23,41,11.30
2016,07,07,23,42,14.50
2016,07,07,23,43,12.90
2016,07,07,23,44,16.10
2016,07,07,23,45,11.30
2016,07,07,23,46,12.90
2016,07,07,23,47,12.90
2016,07,07,23,48,16.10
2016,07,07,23,49,16.10
2016,07,07,23,50,17.70
2016,07,07,23,51,12.90
2016,07,07,23,52,14.50
2016,07,07,23,53,16.10
2016,07,07,23,54,16.10
2016,07,07,23,55,11.30
2016,07,07,23,56,16.10
2016,07,07,23,57,14.50
2016,07,07,23,58,19.30
2016,07,07,23,59,20.90
